Location: Navalespino
(40.5894°N, 4.2660°W)
Time: 19:41:42
(UTC+00:00)

ADEOS - Pass Details

Date: 18 April 2024
Orbit: 790 x 793 km, 98.9° (Epoch: 17 May)

Event Time Altitude Azimuth Distance (km) Brightness Sun altitude
Rises 19:21:16 0° 172° (S) 3,278 6.5 -4.7°
Reaches altitude 10° 19:23:36 10° 175° (S) 2,353 5.8 -5.1°
Maximum altitude 19:28:45 67° 257° (WSW) 861 4.0 -6.0°
Drops below altitude 10° 19:33:58 10° 341° (NNW) 2,369 6.7 -7.0°
Sets 19:36:20 0° 344° (NNW) 3,303 7.4 -7.4°
